Regional Weather Roundup
Issued by NWS

Home | Current Version | Previous Version | Graphics & Text | Print | Product List | Glossary On
Versions: 1 2 3 4 5 6 7 8 9 10 11 12 13 14 15 16 17 18 19 20 21 22 23 24 25 26 27 28 29 30 31 32 33 34 35 36 37 38 39 40 41 42 43 44 45 46 47 48 49 50
000
ASUS45 KABQ 101301
RWRNM
NEW MEXICO REGIONAL WEATHER ROUNDUP
NATIONAL WEATHER SERVICE ALBUQUERQUE NM
600 AM MST WED FEB 10 2016

NOTE: "FAIR" MEANS FEW OR NO CLOUDS BELOW 12,000 FEET AGL WITH NO
       SIGNIFICANT WEATHER OR OBSTRUCTIONS TO VISION.

      THIS PRODUCT IS RELEASED AS TWO VERSIONS.  ONE VERSION NEAR
      THE TOP OF THE HOUR CONTAINING PRELIMINARY DATA FROM ALBUQUERQUE
      AND OTHER STATIONS.  A FINAL VERSION WITH ADDITIONAL DATA IS
      ISSUED ABOUT 10 MINUTES AFTER THE HOUR.

NMZ501-503-504-510>518-101400-
NORTHWEST PLATEAU/NORTHCENTRAL MOUNTAINS

CITY           SKY/WX    TMP DP  RH WIND       PRES   REMARKS
FARMINGTON     CLOUDY    23  19  85 E8        30.43S WCI  14
SANTA FE       CLOUDY    30  17  58 N20       30.40S WCI  17
TAOS           CLOUDY    18  10  73 N5        30.45S WCI  11
ANGEL FIRE     FAIR      -4  -7  86 CALM      30.47S

$$
NMZ402-403-502-505>509-101400-
WESTCENTRAL MOUNTAINS/SOUTHWEST MOUNTAINS

CITY           SKY/WX    TMP DP  RH WIND       PRES   REMARKS
GALLUP         CLEAR     19  15  84 CALM      30.44S
GRANTS         CLEAR     11   8  88 N6        30.47R WCI   1
SILVER CITY      N/A     32  19  59 N14       30.40S WCI  22

$$
NMZ407-409-411-412-101400-
SOUTHERN DESERTS

CITY           SKY/WX    TMP DP  RH WIND       PRES   REMARKS
DEMING         PTCLDY    29  17  61 CALM      30.37R
ALAMOGORDO     CLOUDY    34  16  47 SE3       30.39R
T OR C         CLEAR     36  19  50 NW8       30.39R WCI  30

$$
NMZ519>523-101400-
CENTRAL VALLEYS/CENTRAL HIGHLANDS

CITY           SKY/WX    TMP DP  RH WIND       PRES   REMARKS
ALBUQUERQUE    CLOUDY    31  20  63 CALM      30.42R
DOUBLE EAGLE   CLEAR     46  12  25 CALM      30.42R
MORIARTY ARPT  FAIR      16  13  86 N3        30.41S
CLINES CORNERS CLOUDY    30  18  60 W14       30.37R WCI  19
BELEN          FAIR      26  15  65 CALM      30.43R
SOCORRO        NOT AVBL

$$
NMZ524>526-539-540-101400-
SOUTHCENTRAL MOUNTAINS

CITY           SKY/WX    TMP DP  RH WIND       PRES   REMARKS
RUIDOSO          N/A     37  12  35 SW7       30.42R WCI  32

$$
NMZ527>531-101400-
NORTHEAST HIGHLANDS/NORTHEAST PLAINS

CITY           SKY/WX    TMP DP  RH WIND       PRES   REMARKS
LAS VEGAS      CLOUDY    31  12  45 NW7       30.34S WCI  24
RATON          CLOUDY    21  14  74 NE5       30.31S WCI  15
CLAYTON        CLOUDY    40  15  36 W15       30.22S WCI  32

$$
NMZ532>537-101400-
EASTCENTRAL PLAINS

CITY           SKY/WX    TMP DP  RH WIND       PRES   REMARKS
TUCUMCARI      CLOUDY    30  20  66 W9        30.27F WCI  22
CANNON AFB     NOT AVBL
CLOVIS AIRPORT CLOUDY    36  19  51 W12       30.30S WCI  27

$$
NMZ028-029-538-101400-
SOUTHEAST PLAINS

CITY           SKY/WX    TMP DP  RH WIND       PRES   REMARKS
ROSWELL        CLOUDY    30  18  60 N3        30.34R
ARTESIA        CLOUDY    28  21  74 W5        30.35S WCI  23
CARLSBAD       CLOUDY    28  20  71 NW3       30.33S
HOBBS          CLEAR     32  21  64 W7        30.34R WCI  26


$$



USA.gov is the U.S. government's official web portal to all federal, state and local government web resources and services.